Погода в Баде

Россия / Забайкальский край     51°23′19″N   109°51′47″E
темп.,
°C
ветер,
м/с
пор.,
м/с
влажн.,
%
обл.,
%
осадки,
мм/ч
давл.,
гПа
погр.,
м
14 мая, пт
пт1400:00−2зсз395431 0.0 1016250
03:00−3з27642 0.0 1016205
06:00−4зсз22745 0.0 101734
09:00+3сз35545 0.0 1016751
12:00+7сз5639100 0.0 10142175
15:00+9зсз5635100 0.1 10132535
18:00+9сз4634100 0.0 10132194
21:00+5сз225031 0.0 101530
15 мая, сб
сб1500:00+1з22640 0.0 101811
03:00−1зюз11640 0.0 101912
06:00−1ююз22680 0.0 102020
09:00+7ююз28400 0.0 1017436
12:00+14зюз59210 0.0 10132120
15:00+15зсз68195 0.0 10122665
18:00+13зсз792979 0.0 10122046
21:00+8зсз5103913 0.0 1014777
16 мая, вс
вс1600:00+4з3114928 0.0 1016395
03:00+2зюз245830 0.0 101785
06:00+5з5145538 0.0 1015744
09:00+10з6135721 0.0 10131187
12:00+15зсз7123614 0.0 10102189
15:00+16зсз61135100 0.0 10082634
18:00+14зсз7134893 0.0 10091657
21:00+8з51177100 0.0 10111099
17 мая, пн
пн1700:00+6з289370 0.0 1011266
03:00+4юз229733 0.0 101034
06:00+3юз229692 0.0 100833
09:00+10юз31065100 0.0 1004582
12:00+16зсз71343100 0.0 10012107
15:00+12зсз61169100 0.4 10031517
18:00+12зсз586066 0.1 10031276
21:00+9з366788 0.1 1003232
18 мая, вт
вт1800:00+5юз1282100 0.0 100315
03:00+7ююз127496 0.0 100047
06:00+9з31170100 0.0 999738
09:00+9зсз5107699 0.0 10011049
12:00+8зсз71066100 0.4 10041264
15:00+12сз6103312 0.4 10042045
18:00+12зсз59265 0.0 10042112
21:00+7зсз48385 0.0 1005337